Location: Austin
(30.3000°N, 97.7500°W)
Time: 10:54:04
(UTC-05:00)

Meteor 1-27 Rocket - Pass Details

Date: 05 September 2024
Orbit: 829 x 909 km, 81.3° (Epoch: 10 September)

Event Time Altitude Azimuth Distance (km) Brightness Sun altitude
Rises 20:20:05 0° 358° (N) 3,380 7.0 -7.6°
Reaches altitude 10° 20:22:32 10° 3° (N) 2,449 6.2 -8.2°
Maximum altitude 20:27:57 54° 81° (E) 1,021 3.8 -9.3°
Drops below altitude 10° 20:33:26 10° 157° (SSE) 2,479 5.8 -10.5°
Sets 20:35:55 0° 162° (SSE) 3,424 6.5 -11.0°
